DW8313 Weather Reports


Display with metric or nautical units.
time (UTC)temp
F
wind
direction
speed
MPH
gust
MPH
rain 1hr
in
rain 24hr
in
rain mn
in
humidity
%
barometer
mb
20260905152604 75 0 0.0 0.0 0.00 0.00 0.00 29 1012.4
20260905152404 74 0 0.0 0.0 0.00 0.00 0.00 29 1012.4
20260905152225 74 0 0.0 0.0 0.00 0.00 0.00 29 1012.4
20260905152004 74 0 0.0 0.0 0.00 0.00 0.00 29 1012.4
20260905151804 74 0 0.0 0.0 0.00 0.00 0.00 29 1012.4
20260905151605 73 0 0.0 0.0 0.00 0.00 0.00 29 1012.3
20260905151404 73 0 0.0 0.0 0.00 0.00 0.00 29 1012.3
20260905151204 73 0 0.0 0.0 0.00 0.00 0.00 29 1012.3
20260905151025 73 0 0.0 0.0 0.00 0.00 0.00 30 1012.2
20260905150825 73 0 0.0 0.0 0.00 0.00 0.00 31 1012.2
20260905150604 72 0 0.0 0.0 0.00 0.00 0.00 34 1012.3
20260905150404 72 0 0.0 0.0 0.00 0.00 0.00 33 1012.3
20260905150204 72 0 0.0 0.0 0.00 0.00 0.00 34 1012.2
20260905150004 71 0 0.0 0.0 0.00 0.00 0.00 32 1012.2
20260905145825 71 0 0.0 0.0 0.00 0.00 0.00 33 1012.2
20260905145604 71 0 0.0 0.0 0.00 0.00 0.00 34 1012.1
20260905145404 71 0 0.0 0.0 0.00 0.00 0.00 34 1012.1
20260905145204 70 0 0.0 0.0 0.00 0.00 0.00 35 1012.0
20260905145004 70 0 0.0 0.0 0.00 0.00 0.00 34 1012.0
20260905144804 70 0 0.0 0.0 0.00 0.00 0.00 35 1012.1
20260905144604 69 0 0.0 0.0 0.00 0.00 0.00 34 1012.1
20260905144404 69 0 0.0 0.0 0.00 0.00 0.00 34 1012.0
20260905144204 69 0 0.0 0.0 0.00 0.00 0.00 36 1012.0
20260905144025 68 0 0.0 0.0 0.00 0.00 0.00 36 1012.0
20260905143804 68 92 0.0 1.0 0.00 0.00 0.00 36 1011.9
20260905143604 67 121 0.0 1.0 0.00 0.00 0.00 36 1011.9
20260905143425 67 104 0.0 2.0 0.00 0.00 0.00 35 1011.9
20260905143204 67 95 1.0 4.0 0.00 0.00 0.00 35 1011.9
20260905143004 67 93 1.0 4.0 0.00 0.00 0.00 36 1011.9
20260905142804 67 95 2.0 4.0 0.00 0.00 0.00 36 1012.0
20260905142604 67 96 2.0 4.0 0.00 0.00 0.00 36 1011.9
20260905142404 67 96 2.0 4.0 0.00 0.00 0.00 36 1011.9
20260905142204 66 97 2.0 3.0 0.00 0.00 0.00 36 1011.9
20260905142025 66 98 2.0 3.0 0.00 0.00 0.00 36 1012.0
20260905141804 66 97 2.0 3.0 0.00 0.00 0.00 36 1012.0
20260905141604 65 95 2.0 3.0 0.00 0.00 0.00 37 1012.0
20260905141404 65 95 2.0 3.0 0.00 0.00 0.00 37 1012.0
20260905141204 65 94 2.0 3.0 0.00 0.00 0.00 37 1012.0
20260905141004 65 93 2.0 4.0 0.00 0.00 0.00 38 1012.0
20260905140804 64 91 2.0 4.0 0.00 0.00 0.00 38 1012.0
20260905140604 64 90 2.0 4.0 0.00 0.00 0.00 38 1012.0
20260905140425 64 88 2.0 4.0 0.00 0.00 0.00 38 1012.0
20260905140225 64 87 2.0 4.0 0.00 0.00 0.00 38 1012.0
20260905140004 64 87 2.0 4.0 0.00 0.00 0.00 38 1012.1
20260905135804 64 88 2.0 4.0 0.00 0.00 0.00 38 1012.1
20260905135604 64 87 2.0 3.0 0.00 0.00 0.00 38 1012.1
20260905135404 64 86 2.0 3.0 0.00 0.00 0.00 38 1012.0
20260905135225 65 85 1.0 3.0 0.00 0.00 0.00 38 1012.0
20260905135004 65 88 1.0 3.0 0.00 0.00 0.00 38 1012.0
20260905134804 65 98 1.0 3.0 0.00 0.00 0.00 38 1012.0
20260905134604 65 105 1.0 3.0 0.00 0.00 0.00 38 1011.9
20260905134404 65 108 1.0 3.0 0.00 0.00 0.00 38 1011.9
20260905134225 65 109 2.0 4.0 0.00 0.00 0.00 38 1012.0
20260905134004 64 111 2.0 4.0 0.00 0.00 0.00 38 1011.9
20260905133804 64 111 2.0 4.0 0.00 0.00 0.00 39 1011.8
20260905133604 64 112 1.0 4.0 0.00 0.00 0.00 40 1011.8
20260905133404 63 113 1.0 4.0 0.00 0.00 0.00 40 1011.8
20260905133204 62 114 1.0 3.0 0.00 0.00 0.00 41 1011.8
20260905133004 62 113 1.0 2.0 0.00 0.00 0.00 41 1011.8
20260905132804 62 108 1.0 2.0 0.00 0.00 0.00 41 1011.8
20260905132625 62 103 1.0 2.0 0.00 0.00 0.00 42 1011.7
20260905132404 62 98 1.0 2.0 0.00 0.00 0.00 42 1011.5
20260905132204 62 94 1.0 3.0 0.00 0.00 0.00 42 1011.6
20260905132004 62 90 2.0 3.0 0.00 0.00 0.00 42 1011.5
20260905131825 62 87 2.0 3.0 0.00 0.00 0.00 42 1011.5
20260905131604 62 88 1.0 3.0 0.00 0.00 0.00 43 1011.4
20260905131404 62 87 2.0 3.0 0.00 0.00 0.00 43 1011.3
20260905131204 63 86 2.0 3.0 0.00 0.00 0.00 43 1011.4
20260905131004 63 86 2.0 3.0 0.00 0.00 0.00 43 1011.4
20260905130804 63 85 2.0 3.0 0.00 0.00 0.00 43 1011.4
20260905130604 63 84 2.0 3.0 0.00 0.00 0.00 43 1011.4
20260905130404 62 84 2.0 3.0 0.00 0.00 0.00 44 1011.4
20260905130204 62 84 2.0 3.0 0.00 0.00 0.00 44 1011.4
20260905130004 62 83 2.0 3.0 0.00 0.00 0.00 45 1011.3
20260905125804 62 84 2.0 3.0 0.00 0.00 0.00 45 1011.4
20260905125625 61 84 2.0 3.0 0.00 0.00 0.00 46 1011.4
20260905125404 61 84 2.0 4.0 0.00 0.00 0.00 45 1011.4
20260905125204 61 84 2.0 4.0 0.00 0.00 0.00 45 1011.4
20260905125025 61 84 2.0 4.0 0.00 0.00 0.00 45 1011.5
20260905124804 61 85 2.0 4.0 0.00 0.00 0.00 45 1011.5
20260905124604 61 85 1.0 4.0 0.00 0.00 0.00 45 1011.4
20260905124404 61 84 1.0 4.0 0.00 0.00 0.00 45 1011.5
20260905124204 61 83 0.0 3.0 0.00 0.00 0.00 45 1011.5
20260905124004 61 88 0.0 1.0 0.00 0.00 0.00 45 1011.5
20260905123804 60 0 0.0 0.0 0.00 0.00 0.00 45 1011.5
20260905123604 60 89 0.0 1.0 0.00 0.00 0.00 45 1011.5
20260905123404 60 89 0.0 1.0 0.00 0.00 0.00 45 1011.4
20260905123225 61 89 0.0 1.0 0.00 0.00 0.00 45 1011.4
20260905123025 61 89 0.0 1.0 0.00 0.00 0.00 45 1011.4
20260905122804 61 89 0.0 1.0 0.00 0.00 0.00 45 1011.3
20260905122604 61 0 0.0 0.0 0.00 0.00 0.00 44 1011.3
20260905122404 61 0 0.0 0.0 0.00 0.00 0.00 45 1011.3
20260905122204 61 0 0.0 0.0 0.00 0.00 0.00 45 1011.3
20260905122004 61 0 0.0 0.0 0.00 0.00 0.00 45 1011.3
20260905121805 61 0 0.0 0.0 0.00 0.00 0.00 45 1011.3
20260905121604 61 0 0.0 0.0 0.00 0.00 0.00 45 1011.3
20260905121404 62 0 0.0 0.0 0.00 0.00 0.00 45 1011.3
20260905121204 62 0 0.0 0.0 0.00 0.00 0.00 44 1011.3
20260905121004 62 0 0.0 0.0 0.00 0.00 0.00 45 1011.2
20260905120804 62 0 0.0 0.0 0.00 0.00 0.00 45 1011.3
20260905120604 62 0 0.0 0.0 0.00 0.00 0.00 45 1011.3
20260905120404 62 0 0.0 0.0 0.00 0.00 0.00 46 1011.3
20260905120225 62 88 0.0 1.0 0.00 0.00 0.00 46 1011.2
20260905120025 61 87 0.0 1.0 0.00 0.00 0.00 46 1011.3
20260905115804 61 87 1.0 3.0 0.00 0.00 0.00 47 1011.2
20260905115604 61 87 1.0 3.0 0.00 0.00 0.00 47 1011.3
20260905115404 61 87 1.0 3.0 0.00 0.00 0.00 47 1011.2
20260905115204 61 87 0.0 3.0 0.00 0.00 0.00 47 1011.2
20260905115004 61 86 0.0 3.0 0.00 0.00 0.00 47 1011.2
20260905114804 60 86 0.0 2.0 0.00 0.00 0.00 48 1011.2
20260905114604 60 85 1.0 2.0 0.00 0.00 0.00 48 1011.2
20260905114425 60 85 1.0 2.0 0.00 0.00 0.00 48 1011.2
20260905114204 61 85 1.0 2.0 0.00 0.00 0.00 48 1011.2
20260905114004 61 84 1.0 2.0 0.00 0.00 0.00 47 1011.2
20260905113804 61 83 0.0 2.0 0.00 0.00 0.00 47 1011.2
20260905113604 61 84 0.0 2.0 0.00 0.00 0.00 47 1011.2
20260905113404 61 0 0.0 0.0 0.00 0.00 0.00 47 1011.2
20260905113204 61 0 0.0 0.0 0.00 0.00 0.00 47 1011.1
20260905113004 61 91 0.0 1.0 0.00 0.00 0.00 47 1011.2
20260905112804 61 91 0.0 1.0 0.00 0.00 0.00 47 1011.2
20260905112604 61 91 0.0 1.0 0.00 0.00 0.00 47 1011.1
20260905112425 61 91 0.0 1.0 0.00 0.00 0.00 48 1011.1
20260905112204 61 91 0.0 1.0 0.00 0.00 0.00 48 1011.1
20260905112005 61 0 0.0 0.0 0.00 0.00 0.00 48 1011.2
20260905111805 61 89 0.0 1.0 0.00 0.00 0.00 48 1011.2
20260905111604 61 85 0.0 2.0 0.00 0.00 0.00 47 1011.3
20260905111404 61 85 0.0 2.0 0.00 0.00 0.00 47 1011.2
20260905111204 61 85 0.0 2.0 0.00 0.00 0.00 47 1011.3
20260905111004 61 85 0.0 2.0 0.00 0.00 0.00 47 1011.3
20260905110804 61 85 0.0 2.0 0.00 0.00 0.00 47 1011.3
20260905110604 61 87 0.0 2.0 0.00 0.00 0.00 47 1011.4
20260905110404 61 85 1.0 2.0 0.00 0.00 0.00 47 1011.4
20260905110204 61 85 1.0 2.0 0.00 0.00 0.00 46 1011.4
20260905110004 61 85 1.0 2.0 0.00 0.00 0.00 46 1011.4
20260905105804 61 85 1.0 2.0 0.00 0.00 0.00 46 1011.4
20260905105625 61 83 0.0 2.0 0.00 0.00 0.00 46 1011.4
20260905105404 61 0 0.0 0.0 0.00 0.00 0.00 47 1011.4
20260905105204 62 112 0.0 1.0 0.00 0.00 0.00 46 1011.5
20260905105004 62 112 0.0 1.0 0.00 0.00 0.00 46 1011.5
20260905104804 62 112 0.0 1.0 0.00 0.00 0.00 46 1011.4
20260905104604 62 112 0.0 1.0 0.00 0.00 0.00 47 1011.4
20260905104404 62 89 0.0 1.0 0.00 0.00 0.00 47 1011.5
20260905104204 62 88 0.0 2.0 0.00 0.00 0.00 48 1011.4
20260905104004 62 88 0.0 2.0 0.00 0.00 0.00 48 1011.4
20260905103804 62 88 0.0 2.0 0.00 0.00 0.00 48 1011.4
20260905103604 62 88 0.0 2.0 0.00 0.00 0.00 47 1011.3
20260905103404 62 88 0.0 2.0 0.00 0.00 0.00 47 1011.4
20260905103204 62 88 0.0 2.0 0.00 0.00 0.00 48 1011.4
20260905103004 62 87 0.0 2.0 0.00 0.00 0.00 48 1011.4
20260905102804 62 87 0.0 2.0 0.00 0.00 0.00 48 1011.3
20260905102604 61 87 0.0 2.0 0.00 0.00 0.00 48 1011.4
20260905102425 61 87 0.0 2.0 0.00 0.00 0.00 47 1011.4
20260905102204 62 87 0.0 2.0 0.00 0.00 0.00 47 1011.4
20260905102004 62 92 0.0 2.0 0.00 0.00 0.00 47 1011.4
20260905101804 62 88 1.0 3.0 0.00 0.00 0.00 48 1011.4
20260905101604 62 87 1.0 3.0 0.00 0.00 0.00 48 1011.4
20260905101404 62 86 1.0 3.0 0.00 0.00 0.00 48 1011.4
20260905101225 62 85 1.0 3.0 0.00 0.00 0.00 48 1011.4
20260905101004 62 84 2.0 3.0 0.00 0.00 0.00 48 1011.4
20260905100825 62 84 2.0 3.0 0.00 0.00 0.00 49 1011.4
20260905100604 62 84 2.0 3.0 0.00 0.00 0.00 50 1011.5
20260905100404 62 85 2.0 3.0 0.00 0.00 0.00 50 1011.4
20260905100225 62 86 2.0 3.0 0.00 0.00 0.00 50 1011.4
20260905100004 62 86 1.0 3.0 0.00 0.00 0.00 50 1011.4
20260905095804 62 86 1.0 3.0 0.00 0.00 0.00 50 1011.4
20260905095604 62 86 1.0 3.0 0.00 0.00 0.00 50 1011.5
20260905095425 62 87 1.0 3.0 0.00 0.00 0.00 50 1011.4
20260905095204 62 87 0.0 3.0 0.00 0.00 0.00 50 1011.5
20260905095004 61 87 0.0 3.0 0.00 0.00 0.00 50 1011.5
20260905094804 61 87 0.0 3.0 0.00 0.00 0.00 50 1011.5
20260905094604 61 87 0.0 3.0 0.00 0.00 0.00 50 1011.4
20260905094404 61 84 0.0 2.0 0.00 0.00 0.00 50 1011.5
20260905094204 62 84 0.0 2.0 0.00 0.00 0.00 50 1011.5
20260905094005 62 84 0.0 2.0 0.00 0.00 0.00 50 1011.5
20260905093825 62 84 0.0 2.0 0.00 0.00 0.00 49 1011.4
20260905093625 62 0 0.0 0.0 0.00 0.00 0.00 50 1011.5
20260905093404 62 85 0.0 1.0 0.00 0.00 0.00 49 1011.5
20260905093204 62 85 0.0 1.0 0.00 0.00 0.00 49 1011.5
20260905093004 62 85 0.0 1.0 0.00 0.00 0.00 49 1011.5
20260905092804 62 85 0.0 1.0 0.00 0.00 0.00 49 1011.5
20260905092604 62 85 0.0 1.0 0.00 0.00 0.00 49 1011.5
20260905092404 62 0 0.0 0.0 0.00 0.00 0.00 48 1011.5
20260905092225 62 0 0.0 0.0 0.00 0.00 0.00 49 1011.4
20260905092004 62 0 0.0 0.0 0.00 0.00 0.00 49 1011.4
20260905091804 62 0 0.0 0.0 0.00 0.00 0.00 49 1011.4
20260905091604 62 0 0.0 0.0 0.00 0.00 0.00 50 1011.4
20260905091404 62 0 0.0 0.0 0.00 0.00 0.00 50 1011.4
20260905091225 62 0 0.0 0.0 0.00 0.00 0.00 51 1011.5
20260905091004 62 85 0.0 2.0 0.00 0.00 0.00 52 1011.4
20260905090804 62 85 0.0 2.0 0.00 0.00 0.00 52 1011.4
20260905090604 62 85 0.0 2.0 0.00 0.00 0.00 52 1011.4
20260905090404 62 85 0.0 2.0 0.00 0.00 0.00 52 1011.4
20260905090204 62 85 0.0 3.0 0.00 0.00 0.00 52 1011.5
20260905090004 62 82 0.0 3.0 0.00 0.00 0.00 51 1011.5
20260905085804 62 80 0.0 3.0 0.00 0.00 0.00 52 1011.5
20260905085604 62 85 0.0 3.0 0.00 0.00 0.00 52 1011.5
20260905085404 62 88 1.0 3.0 0.00 0.00 0.00 52 1011.5
20260905085225 62 88 1.0 3.0 0.00 0.00 0.00 52 1011.5
20260905085004 62 93 0.0 3.0 0.00 0.00 0.00 52 1011.6
20260905084804 62 93 0.0 3.0 0.00 0.00 0.00 52 1011.6
20260905084604 62 93 0.0 3.0 0.00 0.00 0.00 52 1011.7
20260905084404 62 89 0.0 2.0 0.00 0.00 0.00 52 1011.7
20260905084204 62 0 0.0 0.0 0.00 0.00 0.00 51 1011.7
20260905084004 62 0 0.0 0.0 0.00 0.00 0.00 50 1011.8
20260905083825 63 0 0.0 0.0 0.00 0.00 0.00 49 1011.8
20260905083604 64 98 0.0 2.0 0.00 0.00 0.00 47 1011.8
20260905083404 64 101 0.0 2.0 0.00 0.00 0.00 46 1011.9
20260905083204 64 97 1.0 2.0 0.00 0.00 0.00 46 1011.9
20260905083004 65 96 1.0 2.0 0.00 0.00 0.00 45 1011.9
20260905082826 65 95 1.0 2.0 0.00 0.00 0.00 46 1011.9
20260905082625 64 96 1.0 2.0 0.00 0.00 0.00 46 1011.9
20260905082404 64 94 1.0 2.0 0.00 0.00 0.00 48 1011.9
20260905082225 64 95 1.0 2.0 0.00 0.00 0.00 49 1011.9
20260905082004 64 97 1.0 2.0 0.00 0.00 0.00 50 1012.0
20260905081825 64 98 0.0 2.0 0.00 0.00 0.00 51 1012.0
20260905081604 64 111 1.0 4.0 0.00 0.00 0.00 52 1012.0
20260905081404 63 120 1.0 4.0 0.00 0.00 0.00 55 1012.0
20260905081204 63 123 1.0 4.0 0.00 0.00 0.00 56 1012.0
20260905081004 63 123 2.0 4.0 0.00 0.00 0.00 57 1012.0
20260905080804 63 123 2.0 4.0 0.00 0.00 0.00 57 1012.0
20260905080625 63 123 2.0 4.0 0.00 0.00 0.00 57 1012.0
20260905080404 63 123 1.0 3.0 0.00 0.00 0.00 58 1012.0
20260905080205 63 119 1.0 3.0 0.00 0.00 0.00 59 1011.9
20260905080004 62 116 0.0 3.0 0.00 0.00 0.00 59 1011.9
20260905075804 62 100 0.0 3.0 0.00 0.00 0.00 61 1011.9
20260905075604 62 89 1.0 3.0 0.00 0.00 0.00 60 1011.9
20260905075425 62 90 1.0 3.0 0.00 0.00 0.00 59 1011.9
20260905075204 62 90 1.0 3.0 0.00 0.00 0.00 57 1011.9
20260905075004 62 92 1.0 3.0 0.00 0.00 0.00 57 1011.9
20260905074804 62 94 1.0 3.0 0.00 0.00 0.00 57 1011.9
20260905074604 62 99 1.0 3.0 0.00 0.00 0.00 54 1012.0
20260905074404 63 102 1.0 3.0 0.00 0.00 0.00 53 1012.0
20260905074204 63 106 1.0 3.0 0.00 0.00 0.00 52 1011.9
20260905074004 63 108 1.0 3.0 0.00 0.00 0.00 51 1011.9
20260905073804 63 111 1.0 3.0 0.00 0.00 0.00 50 1012.0
20260905073604 63 113 1.0 3.0 0.00 0.00 0.00 49 1011.9
20260905073404 62 114 1.0 3.0 0.00 0.00 0.00 50 1011.9
20260905073204 62 115 1.0 3.0 0.00 0.00 0.00 50 1011.9
20260905073004 62 115 1.0 3.0 0.00 0.00 0.00 52 1011.9
20260905072804 62 113 1.0 3.0 0.00 0.00 0.00 56 1011.9
20260905072604 62 114 1.0 3.0 0.00 0.00 0.00 59 1011.9
20260905072404 61 115 0.0 3.0 0.00 0.00 0.00 68 1011.9
20260905072204 61 115 0.0 1.0 0.00 0.00 0.00 68 1011.9
20260905072004 61 110 0.0 2.0 0.00 0.00 0.00 67 1011.9
20260905071804 62 102 0.0 2.0 0.00 0.00 0.00 68 1011.9
20260905071604 62 102 0.0 2.0 0.00 0.00 0.00 67 1011.8
20260905071425 62 102 0.0 2.0 0.00 0.00 0.00 68 1011.8
20260905071204 61 102 0.0 2.0 0.00 0.00 0.00 68 1011.8
20260905071025 61 105 0.0 1.0 0.00 0.00 0.00 68 1011.7
20260905070804 61 96 0.0 1.0 0.00 0.00 0.00 69 1011.7
20260905070604 61 96 0.0 1.0 0.00 0.00 0.00 66 1011.7
20260905070404 62 96 0.0 1.0 0.00 0.00 0.00 66 1011.6
20260905070204 62 96 0.0 1.0 0.00 0.00 0.00 67 1011.6
20260905070004 62 0 0.0 0.0 0.00 0.00 0.00 69 1011.6
20260905065804 62 0 0.0 0.0 0.00 0.00 0.00 70 1011.5
20260905065604 62 0 0.0 0.0 0.00 0.00 0.00 70 1011.5
20260905065425 62 0 0.0 0.0 0.00 0.00 0.00 70 1011.5
20260905065204 62 0 0.0 0.0 0.00 0.00 0.00 69 1011.5
20260905065004 62 133 0.0 1.0 0.00 0.00 0.00 69 1011.5
20260905064804 62 133 0.0 1.0 0.00 0.00 0.00 70 1011.5
20260905064604 62 133 0.0 1.0 0.00 0.00 0.00 70 1011.5
20260905064425 62 133 0.0 1.0 0.00 0.00 0.00 71 1011.5
20260905064204 62 133 0.0 1.0 0.00 0.00 0.00 71 1011.5
20260905064004 62 0 0.0 0.0 0.00 0.00 0.00 70 1011.5
20260905063804 62 83 0.0 2.0 0.00 0.00 0.00 70 1011.4
20260905063604 62 84 0.0 2.0 0.00 0.00 0.00 71 1011.5
20260905063425 62 85 1.0 2.0 0.00 0.00 0.00 71 1011.4
20260905063204 62 86 1.0 2.0 0.00 0.00 0.00 71 1011.3
20260905063004 62 86 1.0 2.0 0.00 0.00 0.00 71 1011.3
20260905062804 62 87 1.0 2.0 0.00 0.00 0.00 71 1011.3
20260905062604 62 88 0.0 2.0 0.00 0.00 0.00 71 1011.3
20260905062425 62 87 0.0 2.0 0.00 0.00 0.00 71 1011.3
20260905062225 62 84 0.0 2.0 0.00 0.00 0.00 71 1011.3
20260905062004 62 93 0.0 1.0 0.00 0.00 0.00 71 1011.3
20260905061804 62 93 0.0 1.0 0.00 0.00 0.00 71 1011.3
20260905061604 62 93 0.0 1.0 0.00 0.00 0.00 71 1011.3
20260905061403 62 100 0.0 1.0 0.00 0.00 0.00 71 1011.3
20260905061204 62 100 0.0 1.0 0.00 0.00 0.00 71 1011.3
20260905061025 62 100 0.0 1.0 0.00 0.00 0.00 71 1011.3
20260905060803 63 100 0.0 1.0 0.00 0.00 0.00 71 1011.3
20260905060604 63 100 0.0 1.0 0.00 0.00 0.00 71 1011.3
20260905060404 62 91 0.0 2.0 0.00 0.00 0.00 71 1011.3
20260905060204 63 91 0.0 2.0 0.00 0.00 0.00 71 1011.3
20260905060004 63 91 0.0 2.0 0.00 0.00 0.00 70 1011.3
20260905055804 63 88 0.0 2.0 0.00 0.00 0.00 70 1011.4
20260905055625 63 88 0.0 2.0 0.00 0.00 0.00 70 1011.3
20260905055404 63 84 0.0 2.0 0.00 0.00 0.00 69 1011.3
20260905055204 63 84 0.0 2.0 0.00 0.00 0.00 69 1011.3
20260905055004 64 84 0.0 2.0 0.00 0.00 0.00 69 1011.3
20260905054804 64 0 0.0 0.0 0.00 0.00 0.00 69 1011.3
20260905054604 64 0 0.0 0.0 0.00 0.00 0.00 69 1011.3
20260905054404 64 0 0.0 0.0 0.00 0.00 0.00 69 1011.3
20260905054204 64 0 0.0 0.0 0.00 0.00 0.00 70 1011.3
20260905054025 64 0 0.0 0.0 0.00 0.00 0.00 70 1011.3
20260905053804 63 0 0.0 0.0 0.00 0.00 0.00 70 1011.3
20260905053604 63 0 0.0 0.0 0.00 0.00 0.00 69 1011.3
20260905053404 63 0 0.0 0.0 0.00 0.00 0.00 69 1011.3
20260905053204 63 0 0.0 0.0 0.00 0.00 0.00 69 1011.3
20260905053004 63 0 0.0 0.0 0.00 0.00 0.00 68 1011.4
20260905052804 63 0 0.0 0.0 0.00 0.00 0.00 68 1011.3
20260905052603 63 0 0.0 0.0 0.00 0.00 0.00 68 1011.3
20260905052404 64 0 0.0 0.0 0.00 0.00 0.00 68 1011.3
20260905052204 64 0 0.0 0.0 0.00 0.00 0.00 68 1011.3
20260905052025 64 0 0.0 0.0 0.00 0.00 0.00 68 1011.4
20260905051804 64 0 0.0 0.0 0.00 0.00 0.00 67 1011.3
20260905051604 64 0 0.0 0.0 0.00 0.00 0.00 67 1011.3
20260905051404 64 0 0.0 0.0 0.00 0.00 0.00 67 1011.3
20260905051203 64 0 0.0 0.0 0.00 0.00 0.00 67 1011.3
20260905051004 64 0 0.0 0.0 0.00 0.00 0.00 67 1011.4
20260905050804 64 0 0.0 0.0 0.00 0.00 0.00 68 1011.4
20260905050604 64 0 0.0 0.0 0.00 0.00 0.00 68 1011.4
20260905050405 64 89 0.0 1.0 0.00 0.00 0.00 68 1011.3
20260905050204 64 89 0.0 2.0 0.00 0.00 0.00 68 1011.3
20260905050026 64 88 0.0 2.0 0.00 0.00 0.00 68 1011.4
20260905045825 64 90 0.0 3.0 0.00 0.00 0.00 68 1011.4
20260905045604 64 91 0.0 3.0 0.00 0.00 0.00 68 1011.4
20260905045404 64 91 1.0 3.0 0.00 0.00 0.00 68 1011.4
20260905045204 64 91 1.0 3.0 0.00 0.00 0.00 68 1011.4
20260905045004 64 92 1.0 3.0 0.00 0.00 0.00 68 1011.5
20260905044825 64 92 1.0 3.0 0.00 0.00 0.00 68 1011.5
20260905044604 64 93 1.0 3.0 0.00 0.00 0.00 68 1011.5
20260905044404 64 93 1.0 3.0 0.00 0.00 0.00 68 1011.5
20260905044203 64 93 1.0 3.0 0.00 0.00 0.00 68 1011.4
20260905044025 64 92 1.0 3.0 0.00 0.00 0.00 68 1011.4
20260905043804 64 92 1.0 3.0 0.00 0.00 0.00 68 1011.4
20260905043625 64 90 1.0 3.0 0.00 0.00 0.00 68 1011.4
20260905043404 64 88 1.0 3.0 0.00 0.00 0.00 67 1011.4
20260905043204 64 88 1.0 3.0 0.00 0.00 0.00 67 1011.4
20260905043004 64 88 1.0 3.0 0.00 0.00 0.00 68 1011.4
20260905042804 64 85 0.0 3.0 0.00 0.00 0.00 68 1011.4
20260905042603 65 78 0.0 2.0 0.00 0.00 0.00 68 1011.4
20260905042404 65 0 0.0 0.0 0.00 0.00 0.00 68 1011.3
20260905042204 65 0 0.0 0.0 0.00 0.00 0.00 68 1011.3
20260905042004 65 0 0.0 0.0 0.00 0.00 0.00 68 1011.3
20260905041805 65 0 0.0 0.0 0.00 0.00 0.00 68 1011.2
20260905041604 64 86 0.0 1.0 0.00 0.00 0.00 68 1011.2
20260905041404 64 86 0.0 1.0 0.00 0.00 0.00 68 1011.2
20260905041204 64 86 0.0 1.0 0.00 0.00 0.00 68 1011.1
20260905041004 64 86 0.0 1.0 0.00 0.00 0.00 68 1011.1
20260905040804 64 86 0.0 1.0 0.00 0.00 0.00 68 1011.1
20260905040604 65 0 0.0 0.0 0.00 0.00 0.00 67 1011.1
20260905040404 65 0 0.0 0.0 0.00 0.00 0.00 67 1011.1
20260905040226 65 0 0.0 0.0 0.00 0.00 0.00 66 1011.0
20260905040004 65 0 0.0 0.0 0.00 0.00 0.00 66 1011.1
20260905035803 65 0 0.0 0.0 0.00 0.00 0.00 67 1011.0
20260905035604 65 0 0.0 0.0 0.00 0.00 0.00 66 1011.1
20260905035404 65 0 0.0 0.0 0.00 0.00 0.00 66 1011.0
20260905035204 65 0 0.0 0.0 0.00 0.00 0.00 67 1010.9
20260905035004 65 0 0.0 0.0 0.00 0.00 0.00 66 1010.9
20260905034804 66 0 0.0 0.0 0.00 0.00 0.00 66 1010.9
20260905034604 66 0 0.0 0.0 0.00 0.00 0.00 66 1010.8
20260905034403 66 0 0.0 0.0 0.00 0.00 0.00 66 1010.8
20260905034204 66 0 0.0 0.0 0.00 0.00 0.00 66 1010.8
20260905034004 66 0 0.0 0.0 0.00 0.00 0.00 65 1010.8
20260905033804 66 0 0.0 0.0 0.00 0.00 0.00 65 1010.8
20260905033625 66 0 0.0 0.0 0.00 0.00 0.00 65 1010.8
20260905033403 66 0 0.0 0.0 0.00 0.00 0.00 65 1010.8
20260905033203 66 0 0.0 0.0 0.00 0.00 0.00 65 1010.8
20260905033004 67 0 0.0 0.0 0.00 0.00 0.00 65 1010.8
20260905032824 67 0 0.0 0.0 0.00 0.00 0.00 65 1010.7
20260905032624 67 0 0.0 0.0 0.00 0.00 0.00 64 1010.7
20260905032404 67 0 0.0 0.0 0.00 0.00 0.00 64 1010.7
20260905032204 67 0 0.0 0.0 0.00 0.00 0.00 64 1010.8
20260905032004 67 0 0.0 0.0 0.00 0.00 0.00 64 1010.8
20260905031804 67 9 0.0 2.0 0.00 0.00 0.00 63 1010.8
20260905031604 67 10 0.0 3.0 0.00 0.00 0.00 63 1010.7
20260905031404 68 9 0.0 3.0 0.00 0.00 0.00 63 1010.7
20260905031225 68 356 0.0 3.0 0.00 0.00 0.00 63 1010.7
20260905031004 68 356 0.0 3.0 0.00 0.00 0.00 63 1010.6
20260905030825 68 344 0.0 3.0 0.00 0.00 0.00 62 1010.6
20260905030604 68 296 0.0 2.0 0.00 0.00 0.00 63 1010.6
20260905030426 68 299 0.0 2.0 0.00 0.00 0.00 62 1010.6
20260905030204 68 0 0.0 0.0 0.00 0.00 0.00 62 1010.6
20260905030004 68 0 0.0 0.0 0.00 0.00 0.00 62 1010.5
20260905025803 68 0 0.0 0.0 0.00 0.00 0.00 62 1010.5
20260905025625 68 0 0.0 0.0 0.00 0.00 0.00 62 1010.5
20260905025404 69 0 0.0 0.0 0.00 0.00 0.00 62 1010.4
20260905025204 69 7 0.0 1.0 0.00 0.00 0.00 61 1010.4
20260905025004 69 8 0.0 1.0 0.00 0.00 0.00 61 1010.3
20260905024804 69 8 0.0 1.0 0.00 0.00 0.00 61 1010.4
20260905024625 69 8 0.0 1.0 0.00 0.00 0.00 61 1010.3
20260905024404 69 8 0.0 1.0 0.00 0.00 0.00 60 1010.3
20260905024204 70 317 0.0 2.0 0.00 0.00 0.00 60 1010.3
20260905024004 70 307 0.0 2.0 0.00 0.00 0.00 60 1010.3
20260905023803 70 307 0.0 2.0 0.00 0.00 0.00 59 1010.3
20260905023625 70 307 0.0 2.0 0.00 0.00 0.00 59 1010.3
20260905023404 70 302 0.0 2.0 0.00 0.00 0.00 58 1010.4
20260905023203 70 299 0.0 2.0 0.00 0.00 0.00 58 1010.4
20260905023004 70 335 0.0 4.0 0.00 0.00 0.00 58 1010.3
20260905022804 71 333 0.0 4.0 0.00 0.00 0.00 58 1010.3
20260905022604 71 335 0.0 4.0 0.00 0.00 0.00 58 1010.3
20260905022403 71 325 0.0 4.0 0.00 0.00 0.00 57 1010.3
20260905022204 71 315 1.0 4.0 0.00 0.00 0.00 57 1010.3
20260905022025 71 309 1.0 4.0 0.00 0.00 0.00 56 1010.3
20260905021825 72 302 1.0 3.0 0.00 0.00 0.00 56 1010.3
20260905021604 72 297 1.0 4.0 0.00 0.00 0.00 56 1010.2
20260905021404 72 297 1.0 4.0 0.00 0.00 0.00 55 1010.2
20260905021204 72 297 1.0 4.0 0.00 0.00 0.00 54 1010.2
20260905021004 73 299 1.0 4.0 0.00 0.00 0.00 53 1010.2
20260905020804 73 299 1.0 4.0 0.00 0.00 0.00 53 1010.2
20260905020603 73 304 1.0 4.0 0.00 0.00 0.00 52 1010.2
20260905020405 73 300 1.0 4.0 0.00 0.00 0.00 52 1010.2
20260905020204 74 296 1.0 4.0 0.00 0.00 0.00 51 1010.2
20260905020004 74 286 1.0 4.0 0.00 0.00 0.00 49 1010.2
20260905015825 74 288 1.0 7.0 0.00 0.00 0.00 49 1010.2
20260905015603 74 287 2.0 7.0 0.00 0.00 0.00 49 1010.1
20260905015425 74 290 2.0 7.0 0.00 0.00 0.00 48 1010.1
20260905015204 74 290 3.0 7.0 0.00 0.00 0.00 48 1010.0
20260905015004 75 292 3.0 7.0 0.00 0.00 0.00 48 1010.0
20260905014803 75 293 3.0 7.0 0.00 0.00 0.00 47 1010.0
20260905014604 75 294 3.0 7.0 0.00 0.00 0.00 47 1010.1
20260905014404 75 296 3.0 6.0 0.00 0.00 0.00 46 1010.0
20260905014204 76 297 3.0 6.0 0.00 0.00 0.00 46 1010.2
20260905014004 76 296 3.0 7.0 0.00 0.00 0.00 45 1010.1
20260905013803 76 295 3.0 8.0 0.00 0.00 0.00 45 1010.1
20260905013603 76 295 3.0 8.0 0.00 0.00 0.00 45 1010.1
20260905013404 76 292 3.0 8.0 0.00 0.00 0.00 44 1010.1
20260905013204 76 294 3.0 8.0 0.00 0.00 0.00 44 1010.1
20260905013025 76 294 4.0 9.0 0.00 0.00 0.00 44 1010.1
20260905012804 77 298 3.0 9.0 0.00 0.00 0.00 43 1010.1
20260905012604 77 298 3.0 9.0 0.00 0.00 0.00 42 1010.1
20260905012403 77 299 3.0 9.0 0.00 0.00 0.00 42 1010.1
20260905012204 78 298 3.0 9.0 0.00 0.00 0.00 41 1010.1
20260905012025 78 298 3.0 6.0 0.00 0.00 0.00 41 1010.1
20260905011803 78 293 3.0 7.0 0.00 0.00 0.00 41 1010.1
20260905011603 78 291 3.0 7.0 0.00 0.00 0.00 41 1010.1
20260905011403 78 293 3.0 7.0 0.00 0.00 0.00 40 1010.1
20260905011204 78 295 3.0 7.0 0.00 0.00 0.00 40 1010.0
20260905011003 78 294 3.0 7.0 0.00 0.00 0.00 40 1010.1
20260905010804 78 295 3.0 6.0 0.00 0.00 0.00 40 1010.0
20260905010604 78 298 3.0 10.0 0.00 0.00 0.00 40 1010.0
20260905010425 78 296 4.0 10.0 0.00 0.00 0.00 40 1010.0
20260905010203 78 297 4.0 10.0 0.00 0.00 0.00 39 1010.0
20260905010004 78 299 4.0 10.0 0.00 0.00 0.00 39 1010.0
20260905005804 79 299 4.0 10.0 0.00 0.00 0.00 39 1010.0
20260905005604 79 297 4.0 10.0 0.00 0.00 0.00 38 1010.0
20260905005424 79 296 3.0 10.0 0.00 0.00 0.00 38 1009.9
20260905005203 79 294 4.0 9.0 0.00 0.00 0.00 37 1009.9
20260905005024 79 292 4.0 9.0 0.00 0.00 0.00 36 1009.9
20260905004803 80 290 3.0 9.0 0.00 0.00 0.00 36 1009.9
20260905004604 80 293 3.0 9.0 0.00 0.00 0.00 36 1009.9
20260905004404 80 294 3.0 9.0 0.00 0.00 0.00 36 1009.9
20260905004204 80 292 3.0 8.0 0.00 0.00 0.00 35 1009.9
20260905004004 80 293 3.0 7.0 0.00 0.00 0.00 35 1010.0
20260905003804 80 299 3.0 7.0 0.00 0.00 0.00 34 1009.9
20260905003604 80 297 3.0 7.0 0.00 0.00 0.00 34 1010.0
20260905003404 80 304 2.0 7.0 0.00 0.00 0.00 33 1010.0
20260905003203 80 307 2.0 6.0 0.00 0.00 0.00 32 1010.0
20260905003004 80 305 2.0 5.0 0.00 0.00 0.00 32 1010.0
20260905002804 80 297 2.0 5.0 0.00 0.00 0.00 32 1010.0
20260905002603 80 295 3.0 9.0 0.00 0.00 0.00 32 1010.0
20260905002403 80 291 4.0 9.0 0.00 0.00 0.00 32 1010.0
20260905002205 80 293 4.0 9.0 0.00 0.00 0.00 33 1010.0
20260905002004 80 295 4.0 9.0 0.00 0.00 0.00 32 1010.0
20260905001825 80 296 4.0 9.0 0.00 0.00 0.00 33 1010.0
20260905001604 80 300 3.0 8.0 0.00 0.00 0.00 33 1010.0
20260905001404 80 301 3.0 6.0 0.00 0.00 0.00 32 1009.9
20260905001204 80 300 2.0 5.0 0.00 0.00 0.00 32 1009.9
20260905001003 80 279 2.0 5.0 0.00 0.00 0.00 33 1009.9
20260905000805 80 237 2.0 10.0 0.00 0.00 0.00 32 1009.9
20260905000603 81 249 3.0 10.0 0.00 0.00 0.00 31 1009.9
20260905000404 80 254 3.0 10.0 0.00 0.00 0.00 31 1009.9
20260905000204 80 261 3.0 10.0 0.00 0.00 0.00 32 1009.9
20260905000004 80 264 3.0 10.0 0.00 0.00 0.00 32 1009.9
20260904235804 80 260 3.0 10.0 0.00 0.00 0.00 32 1010.0
20260904235604 80 272 3.0 8.0 0.00 0.00 0.00 32 1009.9
20260904235404 80 282 3.0 8.0 0.00 0.00 0.00 32 1009.9
20260904235204 80 287 3.0 7.0 0.00 0.00 0.00 32 1010.0
20260904235003 80 285 3.0 7.0 0.00 0.00 0.00 31 1009.9
20260904234804 80 295 4.0 8.0 0.00 0.00 0.00 31 1009.9
20260904234604 80 291 4.0 8.0 0.00 0.00 0.00 30 1009.9
20260904234404 80 289 4.0 8.0 0.00 0.00 0.00 32 1009.9
20260904234204 80 290 4.0 8.0 0.00 0.00 0.00 32 1010.0
20260904234003 80 290 4.0 8.0 0.00 0.00 0.00 32 1010.0
20260904233803 80 287 4.0 9.0 0.00 0.00 0.00 32 1010.0
20260904233603 80 290 3.0 9.0 0.00 0.00 0.00 32 1010.0
20260904233404 80 295 3.0 9.0 0.00 0.00 0.00 32 1010.0
20260904233225 81 290 3.0 9.0 0.00 0.00 0.00 32 1010.0
20260904233004 80 292 3.0 9.0 0.00 0.00 0.00 32 1010.0
20260904232804 80 295 3.0 7.0 0.00 0.00 0.00 31 1010.0
20260904232604 80 298 3.0 7.0 0.00 0.00 0.00 29 1010.0
20260904232403 80 298 4.0 7.0 0.00 0.00 0.00 29 1010.0
20260904232204 80 304 3.0 7.0 0.00 0.00 0.00 30 1009.9
20260904232004 80 298 3.0 7.0 0.00 0.00 0.00 29 1010.0
20260904231804 80 298 4.0 8.0 0.00 0.00 0.00 29 1010.0
20260904231604 80 295 4.0 8.0 0.00 0.00 0.00 29 1009.9
20260904231403 80 293 4.0 8.0 0.00 0.00 0.00 31 1010.0
20260904231203 80 290 4.0 8.0 0.00 0.00 0.00 30 1009.9
20260904231005 80 293 4.0 8.0 0.00 0.00 0.00 31 1009.9
20260904230804 81 294 3.0 8.0 0.00 0.00 0.00 32 1009.9
20260904230604 81 294 2.0 8.0 0.00 0.00 0.00 31 1010.0
20260904230404 81 286 2.0 8.0 0.00 0.00 0.00 27 1010.0
20260904230204 81 279 2.0 8.0 0.00 0.00 0.00 28 1010.0
20260904230004 81 268 2.0 8.0 0.00 0.00 0.00 28 1010.0
20260904225825 80 267 2.0 9.0 0.00 0.00 0.00 30 1010.1
20260904225604 80 277 2.0 9.0 0.00 0.00 0.00 30 1010.1
20260904225404 80 282 3.0 9.0 0.00 0.00 0.00 30 1010.2
20260904225204 80 287 3.0 9.0 0.00 0.00 0.00 28 1010.2
20260904225025 80 295 3.0 9.0 0.00 0.00 0.00 32 1010.2
20260904224824 80 298 3.0 7.0 0.00 0.00 0.00 32 1010.2
20260904224603 80 297 3.0 8.0 0.00 0.00 0.00 31 1010.2
20260904224404 79 297 4.0 8.0 0.00 0.00 0.00 29 1010.2
20260904224203 79 295 4.0 8.0 0.00 0.00 0.00 30 1010.2
20260904224003 80 295 4.0 8.0 0.00 0.00 0.00 31 1010.2
20260904223804 80 293 4.0 11.0 0.00 0.00 0.00 31 1010.3
20260904223604 80 287 4.0 11.0 0.00 0.00 0.00 30 1010.3
20260904223404 80 281 4.0 11.0 0.00 0.00 0.00 31 1010.3
20260904223204 80 275 3.0 11.0 0.00 0.00 0.00 31 1010.3
20260904223003 80 261 3.0 11.0 0.00 0.00 0.00 30 1010.4
20260904222825 81 252 3.0 11.0 0.00 0.00 0.00 29 1010.4
20260904222603 80 255 3.0 11.0 0.00 0.00 0.00 29 1010.3
20260904222404 80 260 3.0 8.0 0.00 0.00 0.00 29 1010.3
20260904222204 81 273 3.0 8.0 0.00 0.00 0.00 28 1010.4
20260904222004 81 268 3.0 7.0 0.00 0.00 0.00 29 1010.3
20260904221804 81 255 3.0 8.0 0.00 0.00 0.00 32 1010.4
20260904221604 80 252 3.0 8.0 0.00 0.00 0.00 31 1010.3
20260904221404 80 262 3.0 8.0 0.00 0.00 0.00 30 1010.4
20260904221204 80 278 3.0 8.0 0.00 0.00 0.00 25 1010.4
20260904221004 80 295 3.0 9.0 0.00 0.00 0.00 26 1010.4
20260904220804 80 294 3.0 9.0 0.00 0.00 0.00 28 1010.5
20260904220604 80 293 3.0 9.0 0.00 0.00 0.00 28 1010.5
20260904220425 79 296 4.0 11.0 0.00 0.00 0.00 28 1010.5
20260904220204 79 296 3.0 13.0 0.00 0.00 0.00 31 1010.6
20260904220004 79 292 4.0 13.0 0.00 0.00 0.00 31 1010.6
20260904215804 79 292 4.0 13.0 0.00 0.00 0.00 32 1010.5
20260904215625 79 289 4.0 13.0 0.00 0.00 0.00 30 1010.6
20260904215404 79 290 4.0 10.0 0.00 0.00 0.00 32 1010.6
20260904215203 79 292 3.0 10.0 0.00 0.00 0.00 32 1010.7
20260904215004 79 290 3.0 10.0 0.00 0.00 0.00 33 1010.6
20260904214803 80 292 3.0 10.0 0.00 0.00 0.00 33 1010.7
20260904214604 80 296 2.0 10.0 0.00 0.00 0.00 34 1010.7
20260904214403 79 289 2.0 8.0 0.00 0.00 0.00 32 1010.7
20260904214204 79 288 2.0 8.0 0.00 0.00 0.00 31 1010.7
20260904214024 79 292 3.0 8.0 0.00 0.00 0.00 32 1010.7
20260904213824 79 296 3.0 8.0 0.00 0.00 0.00 34 1010.7
20260904213604 78 297 3.0 7.0 0.00 0.00 0.00 33 1010.7
20260904213404 78 304 3.0 7.0 0.00 0.00 0.00 32 1010.6
20260904213204 78 306 3.0 7.0 0.00 0.00 0.00 32 1010.7
20260904213004 78 305 3.0 7.0 0.00 0.00 0.00 34 1010.7
20260904212804 78 306 3.0 8.0 0.00 0.00 0.00 34 1010.6
20260904212625 78 309 3.0 8.0 0.00 0.00 0.00 36 1010.6
20260904212403 78 297 3.0 10.0 0.00 0.00 0.00 35 1010.7
20260904212225 78 296 4.0 10.0 0.00 0.00 0.00 35 1010.8
20260904212003 78 300 4.0 10.0 0.00 0.00 0.00 37 1010.8
20260904211803 78 299 4.0 10.0 0.00 0.00 0.00 36 1010.8
20260904211604 78 298 4.0 10.0 0.00 0.00 0.00 37 1010.8
20260904211403 78 297 4.0 10.0 0.00 0.00 0.00 37 1010.9
20260904211203 78 292 4.0 10.0 0.00 0.00 0.00 37 1010.8
20260904211003 78 281 4.0 9.0 0.00 0.00 0.00 38 1010.8
20260904210804 78 281 3.0 9.0 0.00 0.00 0.00 38 1010.8
20260904210604 78 284 3.0 9.0 0.00 0.00 0.00 36 1010.8
20260904210404 78 283 3.0 9.0 0.00 0.00 0.00 37 1010.9
20260904210203 78 283 2.0 8.0 0.00 0.00 0.00 35 1010.9
20260904210004 77 285 2.0 8.0 0.00 0.00 0.00 36 1010.9
20260904205804 77 276 2.0 8.0 0.00 0.00 0.00 37 1010.9
20260904205604 77 272 2.0 7.0 0.00 0.00 0.00 35 1011.0
20260904205404 77 276 2.0 8.0 0.00 0.00 0.00 36 1011.0
20260904205204 77 278 2.0 8.0 0.00 0.00 0.00 35 1011.0
20260904205003 77 286 3.0 8.0 0.00 0.00 0.00 36 1011.0
20260904204804 77 292 3.0 8.0 0.00 0.00 0.00 38 1011.0
20260904204624 77 292 3.0 8.0 0.00 0.00 0.00 38 1011.0
20260904204404 77 289 3.0 7.0 0.00 0.00 0.00 37 1011.0
20260904204204 77 293 3.0 7.0 0.00 0.00 0.00 38 1011.0
20260904204003 77 292 3.0 8.0 0.00 0.00 0.00 38 1011.1
20260904203803 78 298 3.0 8.0 0.00 0.00 0.00 38 1011.0
20260904203604 77 300 3.0 8.0 0.00 0.00 0.00 40 1011.1
20260904203403 76 303 3.0 8.0 0.00 0.00 0.00 38 1011.0
20260904203204 76 305 4.0 8.0 0.00 0.00 0.00 40 1011.0
20260904203004 76 304 4.0 8.0 0.00 0.00 0.00 40 1011.0
20260904202804 76 303 3.0 8.0 0.00 0.00 0.00 40 1011.0
20260904202604 76 303 3.0 8.0 0.00 0.00 0.00 40 1011.0
20260904202404 76 300 3.0 8.0 0.00 0.00 0.00 40 1011.0
20260904202204 76 290 3.0 6.0 0.00 0.00 0.00 39 1011.0
20260904202003 76 284 3.0 6.0 0.00 0.00 0.00 40 1011.0
20260904201825 76 281 3.0 6.0 0.00 0.00 0.00 39 1011.0
20260904201604 76 272 2.0 6.0 0.00 0.00 0.00 39 1011.0
20260904201404 76 278 3.0 9.0 0.00 0.00 0.00 39 1011.1
20260904201204 76 286 3.0 9.0 0.00 0.00 0.00 39 1011.0
20260904201004 75 296 3.0 9.0 0.00 0.00 0.00 41 1011.0
20260904200803 75 292 3.0 9.0 0.00 0.00 0.00 40 1011.0
20260904200625 75 289 4.0 9.0 0.00 0.00 0.00 39 1011.1
20260904200404 75 288 3.0 8.0 0.00 0.00 0.00 40 1011.0
20260904200204 75 286 3.0 6.0 0.00 0.00 0.00 37 1011.0
20260904200003 75 284 3.0 7.0 0.00 0.00 0.00 39 1011.1
20260904195804 75 285 3.0 7.0 0.00 0.00 0.00 39 1011.0
20260904195603 75 292 4.0 8.0 0.00 0.00 0.00 39 1011.1
20260904195425 75 292 4.0 8.0 0.00 0.00 0.00 40 1011.0
20260904195204 75 290 4.0 8.0 0.00 0.00 0.00 39 1011.2
20260904195004 75 291 3.0 8.0 0.00 0.00 0.00 41 1011.2
20260904194825 75 292 3.0 8.0 0.00 0.00 0.00 41 1011.2
20260904194625 75 288 2.0 8.0 0.00 0.00 0.00 40 1011.2
20260904194403 75 282 2.0 6.0 0.00 0.00 0.00 40 1011.2
20260904194204 75 282 2.0 9.0 0.00 0.00 0.00 40 1011.2
20260904194003 75 290 3.0 9.0 0.00 0.00 0.00 40 1011.3
20260904193803 75 301 3.0 9.0 0.00 0.00 0.00 41 1011.3
20260904193603 75 305 3.0 9.0 0.00 0.00 0.00 41 1011.3
20260904193403 74 305 3.0 9.0 0.00 0.00 0.00 42 1011.3
20260904193203 74 308 3.0 7.0 0.00 0.00 0.00 42 1011.4
20260904193003 74 297 2.0 7.0 0.00 0.00 0.00 43 1011.4
20260904192825 75 290 3.0 7.0 0.00 0.00 0.00 42 1011.5
20260904192603 74 279 2.0 6.0 0.00 0.00 0.00 45 1011.5
20260904192404 74 281 2.0 6.0 0.00 0.00 0.00 45 1011.4
20260904192224 74 284 2.0 7.0 0.00 0.00 0.00 44 1011.5
20260904192004 74 284 2.0 7.0 0.00 0.00 0.00 45 1011.6
20260904191804 74 288 2.0 7.0 0.00 0.00 0.00 45 1011.5
20260904191625 74 287 2.0 7.0 0.00 0.00 0.00 46 1011.6
20260904191404 74 277 2.0 7.0 0.00 0.00 0.00 45 1011.7
20260904191204 74 280 3.0 7.0 0.00 0.00 0.00 45 1011.7
20260904191003 74 282 3.0 7.0 0.00 0.00 0.00 44 1011.6
20260904190804 74 284 3.0 8.0 0.00 0.00 0.00 44 1011.7
20260904190604 74 289 3.0 8.0 0.00 0.00 0.00 44 1011.7
20260904190404 74 289 4.0 9.0 0.00 0.00 0.00 46 1011.7
20260904190204 74 283 3.0 9.0 0.00 0.00 0.00 45 1011.7
20260904190004 73 286 4.0 9.0 0.00 0.00 0.00 46 1011.8
20260904185803 73 286 4.0 9.0 0.00 0.00 0.00 44 1011.8
20260904185603 74 278 3.0 9.0 0.00 0.00 0.00 45 1011.8
20260904185404 74 270 3.0 8.0 0.00 0.00 0.00 47 1011.8
20260904185204 74 269 3.0 8.0 0.00 0.00 0.00 45 1011.8
20260904185025 74 259 2.0 8.0 0.00 0.00 0.00 45 1011.9
20260904184804 73 256 2.0 7.0 0.00 0.00 0.00 45 1011.9
20260904184604 73 255 2.0 7.0 0.00 0.00 0.00 44 1011.8
20260904184403 73 268 2.0 7.0 0.00 0.00 0.00 45 1011.9
20260904184204 73 280 2.0 6.0 0.00 0.00 0.00 46 1011.8
20260904184004 73 282 3.0 6.0 0.00 0.00 0.00 46 1011.9
20260904183804 73 281 3.0 6.0 0.00 0.00 0.00 46 1011.8
20260904183603 72 287 3.0 6.0 0.00 0.00 0.00 48 1011.7
20260904183403 72 278 3.0 7.0 0.00 0.00 0.00 47 1011.6
20260904183203 72 275 3.0 7.0 0.00 0.00 0.00 47 1011.7
20260904183024 72 271 3.0 7.0 0.00 0.00 0.00 48 1011.8
20260904182824 72 271 3.0 7.0 0.00 0.00 0.00 46 1011.7
20260904182624 72 278 3.0 7.0 0.00 0.00 0.00 45 1011.8
20260904182403 72 295 3.0 8.0 0.00 0.00 0.00 46 1011.7
20260904182204 72 297 3.0 8.0 0.00 0.00 0.00 46 1011.8
20260904182003 72 298 3.0 8.0 0.00 0.00 0.00 46 1011.8
20260904181825 71 298 3.0 8.0 0.00 0.00 0.00 47 1011.7
20260904181603 71 290 2.0 8.0 0.00 0.00 0.00 47 1011.7
20260904181404 71 281 2.0 7.0 0.00 0.00 0.00 46 1011.7
20260904181203 71 285 2.0 7.0 0.00 0.00 0.00 45 1011.7
20260904181004 71 287 2.0 7.0 0.00 0.00 0.00 45 1011.8
20260904180803 71 290 2.0 6.0 0.00 0.00 0.00 45 1011.8
20260904180603 71 295 3.0 7.0 0.00 0.00 0.00 45 1011.8
20260904180404 71 299 2.0 7.0 0.00 0.00 0.00 44 1011.8
20260904180203 71 295 2.0 7.0 0.00 0.00 0.00 46 1011.9
20260904180025 71 299 2.0 7.0 0.00 0.00 0.00 45 1011.9
20260904175824 71 295 2.0 7.0 0.00 0.00 0.00 45 1011.9
20260904175603 71 292 2.0 7.0 0.00 0.00 0.00 46 1011.8
20260904175404 71 289 2.0 7.0 0.00 0.00 0.00 47 1011.9
20260904175204 71 292 2.0 6.0 0.00 0.00 0.00 47 1011.8
20260904175025 71 287 2.0 8.0 0.00 0.00 0.00 47 1011.9
20260904174804 71 285 3.0 8.0 0.00 0.00 0.00 47 1011.8
20260904174603 70 283 3.0 8.0 0.00 0.00 0.00 48 1011.8
20260904174403 70 285 3.0 8.0 0.00 0.00 0.00 47 1011.8
20260904174204 70 282 3.0 8.0 0.00 0.00 0.00 47 1011.8
20260904174025 70 284 2.0 6.0 0.00 0.00 0.00 47 1011.8
20260904173804 70 290 3.0 6.0 0.00 0.00 0.00 47 1011.8
20260904173625 70 293 3.0 6.0 0.00 0.00 0.00 49 1011.8
20260904173404 70 293 3.0 6.0 0.00 0.00 0.00 48 1011.8
20260904173203 70 291 2.0 6.0 0.00 0.00 0.00 48 1011.8
20260904173004 70 292 2.0 6.0 0.00 0.00 0.00 47 1011.8
20260904172803 70 291 2.0 6.0 0.00 0.00 0.00 48 1011.7
20260904172604 70 286 1.0 6.0 0.00 0.00 0.00 48 1011.7
20260904172425 69 290 2.0 6.0 0.00 0.00 0.00 47 1011.7
20260904172203 69 293 2.0 6.0 0.00 0.00 0.00 47 1011.7
20260904172004 69 291 2.0 6.0 0.00 0.00 0.00 47 1011.7
20260904171804 69 290 2.0 6.0 0.00 0.00 0.00 47 1011.7
20260904171603 69 289 2.0 6.0 0.00 0.00 0.00 48 1011.6
20260904171404 69 289 2.0 6.0 0.00 0.00 0.00 49 1011.6
20260904171203 69 290 2.0 6.0 0.00 0.00 0.00 48 1011.6
20260904171004 69 291 2.0 6.0 0.00 0.00 0.00 48 1011.6
20260904170803 68 291 2.0 6.0 0.00 0.00 0.00 49 1011.5
20260904170604 68 293 2.0 5.0 0.00 0.00 0.00 49 1011.6
20260904170404 68 292 1.0 5.0 0.00 0.00 0.00 47 1011.5
20260904170224 68 295 1.0 5.0 0.00 0.00 0.00 48 1011.5
20260904170004 68 290 0.0 3.0 0.00 0.00 0.00 48 1011.5
20260904165824 68 284 0.0 3.0 0.00 0.00 0.00 50 1011.4
20260904165603 68 288 0.0 3.0 0.00 0.00 0.00 51 1011.4
20260904165404 68 292 0.0 3.0 0.00 0.00 0.00 51 1011.4
20260904165203 68 291 0.0 3.0 0.00 0.00 0.00 51 1011.4
20260904165004 68 296 1.0 4.0 0.00 0.00 0.00 51 1011.4
20260904164804 67 300 2.0 5.0 0.00 0.00 0.00 52 1011.4
20260904164604 67 301 1.0 5.0 0.00 0.00 0.00 53 1011.3
20260904164403 67 299 1.0 5.0 0.00 0.00 0.00 51 1011.3
20260904164203 67 303 2.0 5.0 0.00 0.00 0.00 52 1011.3
20260904164025 67 306 2.0 5.0 0.00 0.00 0.00 54 1011.4
20260904163804 67 305 1.0 4.0 0.00 0.00 0.00 54 1011.3
20260904163603 67 307 1.0 4.0 0.00 0.00 0.00 55 1011.3
20260904163404 67 310 1.0 4.0 0.00 0.00 0.00 55 1011.3
20260904163204 67 306 1.0 4.0 0.00 0.00 0.00 54 1011.3
20260904163004 67 294 0.0 1.0 0.00 0.00 0.00 55 1011.2
20260904162803 67 265 0.0 2.0 0.00 0.00 0.00 55 1011.2
20260904162603 67 286 0.0 2.0 0.00 0.00 0.00 55 1011.3
20260904162403 67 290 0.0 2.0 0.00 0.00 0.00 56 1011.3
20260904162204 67 294 0.0 2.0 0.00 0.00 0.00 55 1011.2
20260904162004 67 293 0.0 2.0 0.00 0.00 0.00 56 1011.3
20260904161803 67 297 1.0 5.0 0.00 0.00 0.00 56 1011.2
20260904161604 67 298 1.0 5.0 0.00 0.00 0.00 56 1011.2
20260904161404 67 293 1.0 5.0 0.00 0.00 0.00 55 1011.2
20260904161203 67 292 1.0 5.0 0.00 0.00 0.00 54 1011.1
20260904161004 67 292 1.0 5.0 0.00 0.00 0.00 51 1011.1
20260904160804 67 281 0.0 3.0 0.00 0.00 0.00 48 1011.1
20260904160604 67 280 0.0 3.0 0.00 0.00 0.00 48 1011.0
20260904160404 67 278 0.0 1.0 0.00 0.00 0.00 46 1010.9
20260904160224 67 277 0.0 1.0 0.00 0.00 0.00 45 1010.9
20260904160004 67 278 0.0 1.0 0.00 0.00 0.00 45 1010.9
20260904155804 66 280 0.0 1.0 0.00 0.00 0.00 44 1010.9
20260904155603 66 280 0.0 1.0 0.00 0.00 0.00 44 1010.9
20260904155403 66 280 0.0 1.0 0.00 0.00 0.00 43 1010.9
20260904155203 66 280 0.0 1.0 0.00 0.00 0.00 43 1010.9
20260904155004 66 263 0.0 1.0 0.00 0.00 0.00 42 1010.9
20260904154803 66 263 0.0 1.0 0.00 0.00 0.00 41 1010.9
20260904154603 66 263 0.0 1.0 0.00 0.00 0.00 42 1010.9
20260904154403 66 263 0.0 1.0 0.00 0.00 0.00 40 1010.9
20260904154204 66 263 0.0 1.0 0.00 0.00 0.00 40 1010.9
20260904154003 66 0 0.0 0.0 0.00 0.00 0.00 40 1010.9
20260904153804 65 0 0.0 0.0 0.00 0.00 0.00 39 1010.9
20260904153624 65 285 0.0 1.0 0.00 0.00 0.00 38 1011.0
20260904153425 65 285 0.0 1.0 0.00 0.00 0.00 38 1011.0
20260904153225 65 285 0.0 1.0 0.00 0.00 0.00 38 1011.0
20260904153003 65 285 0.0 1.0 0.00 0.00 0.00 38 1011.0
20260904152804 65 285 0.0 1.0 0.00 0.00 0.00 38 1011.0